Location: Unspecified
(0.0000°N, 0.0000°E)
Time: 23:56:59
(UTC+00:00)

S-56A Canister/Altair - Visible Passes

Search period start: 21 January 2018 00:00
Search period end: 31 January 2018 00:00
Orbit: 634 x 2499 km, 38.9° (Epoch: 20 January)

Date Brightness Start Highest point End Pass type
(mag) Time Alt. Az. Time Alt. Az. Time Alt. Az.
21 Jan 11.1 03:46:56 10° SSW 03:59:29 36° SE 04:12:29 10° E visible
21 Jan 9.5 18:46:03 10° W 18:49:54 27° SW 18:54:24 10° SSE visible
22 Jan 11.2 03:14:20 10° SSW 03:25:58 32° SE 03:38:28 10° E visible
22 Jan 10.1 05:18:14 10° SW 05:33:15 87° SE 05:47:19 10° NE visible
23 Jan 11.3 02:41:53 10° SSW 02:52:29 27° SE 03:04:13 10° E visible
23 Jan 10.1 04:45:05 10° SW 04:59:44 78° SE 05:14:12 10° NE visible
24 Jan 11.3 02:09:37 10° S 02:19:01 23° SE 02:29:39 10° E visible
24 Jan 10.2 04:12:05 10° SW 04:26:13 70° SE 04:40:55 10° ENE visible
25 Jan 11.4 01:37:36 10° S 01:45:37 19° SE 01:54:44 10° ESE visible
25 Jan 10.3 03:39:13 10° SW 03:52:43 62° SE 04:07:29 10° ENE visible
25 Jan 10.2 05:45:30 10° WSW 05:59:43 51° NW 06:13:07 10° NNE visible
26 Jan 11.4 01:05:57 10° S 01:12:15 15° SE 01:19:21 10° ESE visible
26 Jan 10.3 03:06:29 10° SSW 03:19:16 55° SE 03:33:52 10° ENE visible
26 Jan 10.1 05:11:59 10° WSW 05:26:12 58° NW 05:40:17 10° NE visible
27 Jan 11.5 00:38:33 12° SE 00:38:56 12° SE 00:43:05 10° SE visible
27 Jan 10.4 02:36:33 19° SSW 02:45:52 48° SE 03:00:06 10° ENE visible
27 Jan 9.9 04:38:39 10° WSW 04:52:40 65° NW 05:07:17 10° NE visible
28 Jan 10.5 02:10:22 39° SSE 02:12:32 42° SE 02:26:08 10° ENE visible
28 Jan 9.8 04:08:06 20° WSW 04:19:09 73° NW 04:34:11 10° NE visible
29 Jan 10.8 01:42:42 32° ESE 01:42:42 32° ESE 01:51:59 10° ENE visible
29 Jan 9.7 03:40:21 48° WSW 03:45:39 81° NW 04:00:56 10° NE visible
29 Jan 10.6 05:41:18 10° W 05:53:14 29° NW 06:05:01 10° NNE visible
30 Jan 11.4 01:14:17 17° E 01:14:17 17° E 01:17:37 10° E visible
30 Jan 9.6 03:11:54 87° WSW 03:12:12 89° NW 03:27:33 10° NE visible
30 Jan 10.5 05:09:31 15° W 05:19:39 33° NW 05:32:16 10° NNE visible
